Location: Baili�vre
(50.0696°N, 4.2409°E)
Time: 05:06:23
(UTC+00:00)

Lacrosse 5 - Pass Details

Date: 08 August 2020
Orbit: 717 x 720 km, 57.0° (Epoch: 18 September)

Event Time Altitude Azimuth Distance (km) Brightness Sun altitude
Rises 23:18:52 0° 299° (WNW) 3,130 5.7 -23.8°
Reaches altitude 10° 23:21:34 10° 287° (WNW) 2,206 4.6 -23.9°
Enters shadow 23:24:41 24° 252° (WSW) 1,464 3.3 -23.9°
